STARLINK-32326, 61674

Orbit data source: Space-Track

STARLINK-32326, 61674 is a payload satellite owned by SpaceX/Seattle (US) in LEO that was launched on Sat, 26 Oct 2024 UTC via an FALCON 9 launch vehicle from the Air Force Eastern Test Range (AFETR). Payload-class satellites include a variety of spacecraft equipped with specific instruments for various scientific and technological missions. These include communications satellites like Starlink; space stations such as the ISS; scientific satellites like the Hubble; Earth observation satellites from companies like Planet Labs, Umbra, and HawkEye 360; GPS; miniature CubeSats for education and research; and military/defense satellites.

Loading next visibility...
Identifier
61674, 2024-193P
Orbit
LEO
Country
Flag of USUS
Related business
Manufacturer
SpaceX/Seattle
Mission
Operational Commercial Communications
Bus & Motor
STARLINK V2M, Unknown motor
Mass
730 kg wet, ~700 kg dry
Launch date (UTC)
2024-10-26 (1 year ago)
Launch vehicle
FALCON 9
Launch site
Air Force Eastern Test Range (AFETR)
Object type
Payload
Rocket body
Debris
Shape & HBR
Box + 2 Pan, 17.7 m
Radar Cross Section
33.884 m², Large (>1 m²)

Expand to show TLE details & history
Last TLE update: 11 hours ago

TLE from 11 hours ago
0 STARLINK-32326
1 61674U 24193P   25310.27328535 -.00003938  00000-0 -12105-3 0  9996
2 61674  53.1616 304.0816 0001621  88.1071 272.0116 15.30159835 57635
Epoch: 2025-11-06T06:33Z
TLE epoch observation values (Epoch: 2025-11-06T06:33:31.854Z)
Latitude
0.00004°
Longitude
159.96494°
Altitude
476.196 km
Speed
7.629 km/s
True Right ascension
20h 16m 19s
True Declination
0° 00' 00"
Sunlit
Object was in daylight at epoch
Visualization orbit readout
Latitude
Unknown
Longitude
Unknown
Altitude
Unknown
Speed
Unknown
Apparent Right ascension
Unknown
Apparent Declination
Unknown
Sunlit
N/A
Visualization observer readout
Local Sidereal Time
13:34:54
Azimuth
Unknown
Elevation
Unknown
Doppler factor
Unknown
Orbital elements
Apogee altitude
476.702 km
Perigee altitude
474.48 km
Semi-major axis
6,853.728 km
Eccentricity
0.00016
Inclination
53.1616°
RAAN
304.0816°
Arg. of periapsis
88.1071°
True anomaly
271.99304°
Mean anomaly
272.0116°
Eccentric anomaly
272.00232°
Mean motion
3.82519 °/min
Orbital period
94.11 mins
BSTAR
-0.00012105
Loading maneuver chart data...
Computing Atmospheric mass density...
Loading historical data...
Loading historical data...
Loading historical data...
Loading historical data...
Loading historical data...
Loading historical data...
Loading historical data...

Documentation

Showing up to 5 results
|